Weather History for Greybull, WY

Change the Weather History Date:

Monday, February 11, 2013

  Actual Average Record
Temperature  
Mean Temperature 8 °F 22 °F  
Max Temperature 23 °F 34 °F 48 °F (2005)
Min Temperature -8 °F 10 °F -10 °F (2001)
Degree Days  
Heating Degree Days 57 43  
Month to date heating degree days 537 494  
Since 1 July heating degree days 5125 5308  
Cooling Degree Days 0 0  
Month to date cooling degree days 0 0  
Year to date cooling degree days 0 0  
Moisture  
Dew Point 3 °F    
Average Humidity 77    
Maximum Humidity 91    
Minimum Humidity 62    
Precipitation  
Precipitation 0.00 in 0.01 in 0.01 in (2012)
Month to date precipitation T 0.07  
Year to date precipitation 0.28 0.30  
Sea Level Pressure  
Sea Level Pressure 30.25 in    
Wind  
Wind Speed 3 mph (ESE)    
Max Wind Speed 7 mph    
Max Gust Speed 8 mph    
Visibility 9 miles    
Events      
T = Trace of Precipitation, MM = Missing Value Source: NWS Daily Summary

Daily Weather History Graph

Daily Weather History Graph

Search for Another Location

Airport:

Trip Planner

Search our weather history database for the weather conditions in past years. The results will help you decide how hot, cold, wet, or windy it might be!

Date:

Astronomy

Feb. 11, 2013 Rise Set
Actual Time 7:17 AM MST 5:36 PM MST
Civil Twilight 6:47 AM MST 6:06 PM MST
Nautical Twilight 6:13 AM MST 6:40 PM MST
Astronomical Twilight 5:39 AM MST 7:14 PM MST
Moon 7:38 AM MST (2/11) 7:43 PM MST (2/11)
Length of Visible Light 11h 18m
Length of Day
10h 18m
Waxing Crescent, 3% of the Moon is Illuminated
Feb 11
Waxing Crescent
Feb 17
First Quarter
Feb 25
Full
Mar 4
Last Quarter
Mar 11
New

Hourly Weather History & Observations

Time (MST) Temp. Windchill Dew Point Humidity Pressure Visibility Wind Dir Wind Speed Gust Speed Precip Events Conditions
12:53 AM 7.0 °F -3.3 °F 3.9 °F 87% 30.27 in 10.0 mi ESE 5.8 mph - N/A   Clear
1:53 AM 5.0 °F -5.6 °F 1.9 °F 87% 30.27 in 10.0 mi ESE 5.8 mph - N/A   Clear
2:53 AM 3.9 °F -5.3 °F 1.9 °F 91% 30.27 in 10.0 mi ESE 4.6 mph - N/A   Clear
3:53 AM 1.0 °F -8.7 °F -2.0 °F 87% 30.28 in 10.0 mi ESE 4.6 mph - N/A   Clear
4:53 AM 1.9 °F -5.6 °F -2.0 °F 83% 30.28 in 10.0 mi SE 3.5 mph - N/A   Clear
5:53 AM -2.9 °F - -7.1 °F 82% 30.31 in 10.0 mi Calm Calm - N/A   Clear
6:53 AM -7.1 °F - -11.0 °F 83% 30.32 in 10.0 mi Calm Calm - N/A   Clear
7:53 AM -6.0 °F - -9.9 °F 83% 30.33 in 10.0 mi Calm Calm - N/A   Clear
8:45 AM -0.4 °F - -5.8 °F 78% 30.09 in 1.8 mi Calm Calm - N/A   Partly Cloudy
8:53 AM -0.0 °F - -2.9 °F 88% 30.32 in 2.5 mi Calm Calm - N/A   Partly Cloudy
9:00 AM -0.4 °F - -2.2 °F 92% 30.08 in 5.0 mi Calm Calm - N/A   Partly Cloudy
9:53 AM 3.0 °F -4.4 °F -0.9 °F 84% 30.31 in 10.0 mi NNW 3.5 mph - N/A   Clear
10:53 AM 7.0 °F 0.1 °F 3.0 °F 84% 30.30 in 10.0 mi NNW 3.5 mph - N/A   Clear
11:53 AM 12.9 °F - 7.0 °F 77% 30.27 in 10.0 mi Calm Calm - N/A   Clear
12:53 PM 17.1 °F - 8.1 °F 68% 30.23 in 10.0 mi Calm Calm - N/A   Clear
1:53 PM 19.9 °F - 9.0 °F 62% 30.21 in 10.0 mi Calm Calm - N/A   Clear
2:53 PM 21.9 °F 14.5 °F 10.9 °F 63% 30.20 in 10.0 mi East 5.8 mph - N/A   Clear
3:53 PM 21.9 °F 17.2 °F 10.0 °F 60% 30.20 in 10.0 mi ESE 3.5 mph - N/A   Clear
4:53 PM 19.9 °F 12.1 °F 10.0 °F 65% 30.20 in 10.0 mi East 5.8 mph - N/A   Clear
5:53 PM 19.0 °F 12.3 °F 10.0 °F 68% 30.21 in 10.0 mi SE 4.6 mph - N/A   Scattered Clouds
6:53 PM 19.0 °F 13.9 °F 10.0 °F 68% 30.23 in 10.0 mi ESE 3.5 mph - N/A   Overcast
7:53 PM 16.0 °F 8.8 °F 10.0 °F 77% 30.24 in 10.0 mi ESE 4.6 mph - N/A   Partly Cloudy
8:53 PM 14.0 °F 8.2 °F 8.1 °F 77% 30.24 in 10.0 mi SE 3.5 mph - N/A   Clear
9:53 PM 12.9 °F 5.2 °F 8.1 °F 81% 30.24 in 10.0 mi ESE 4.6 mph - N/A   Clear
10:53 PM 3.9 °F - 1.0 °F 88% 30.26 in 10.0 mi Calm Calm - N/A   Clear
11:53 PM 1.9 °F - -0.9 °F 88% 30.27 in 10.0 mi Calm Calm - N/A   Clear